Location: Observatorio del Centro Ecologico de Sonora
(29.0667°N, 110.9333°W)
Time: 12:25:54
(UTC-07:00)

ISS - Visible Passes

Search period start: 20 December 2014 00:00
Search period end: 30 December 2014 00:00
Orbit: 404 x 414 km, 51.6° (Epoch: 20 December)

Date Brightness Start Highest point End Pass type
(mag) Time Alt. Az. Time Alt. Az. Time Alt. Az.
25 Dec -1.8 18:54:17 10° NNW 18:56:00 23° N 18:56:00 23° N visible
26 Dec -1.6 18:03:55 10° N 18:06:06 17° NE 18:08:17 10° E visible
26 Dec -0.8 19:39:46 10° WNW 19:41:14 21° W 19:41:14 21° W visible
27 Dec -3.2 18:48:28 10° NW 18:51:44 75° SW 18:54:15 16° SE visible
28 Dec -3.0 17:57:28 10° NNW 18:00:38 45° NE 18:03:46 10° ESE visible
29 Dec -0.5 18:43:19 10° WNW 18:45:51 21° SW 18:48:22 10° S visible
